This demonstration page uses our WeatherBlox Daily Observations layout. Learn more.

41.55636, -103.73856

Hourly Observations for January 12, 2018

Temp ( °F °C ) Dew Point ( °F °C ) Humidity (%) Winds ( mph kmh ) Pressure ( in mb ) Visibility ( mi km ) Precip ( " mm )
12:53 am 00:53 Cloudy 24 -4.4 12 -11.1 60 60 ESE 21 33 30.06 1018 10 16.09344 0 0
1:53 am 01:53 Cloudy 25 -3.9 12 -11.1 58 58 ESE 18 30 30.03 1017 10 16.09344 0 0
2:53 am 02:53 Cloudy 25 -3.9 12 -11.1 58 58 ESE 17 28 30 1016 9 14.484096 0.001 0.001
3:53 am 03:53 Cloudy with Light Snow 26 -3.3 13 -10.6 57 57 ESE 18 30 30 1016 6 9.656064 0.001 0.001
4:53 am 04:53 Mostly Cloudy 25 -3.9 13 -10.6 60 60 ESE 18 30 30 1016 10 16.09344 0.001 0.001
5:24 am 05:24 Cloudy 25 -4 12 -11 59 59 ESE 20 31 30.09 1019 10 16.09344 0 0
5:42 am 05:42 Partly Cloudy 25 -4 12 -11 59 59 ESE 17 28 30.09 1019 10 16.09344 0 0
5:53 am 05:53 Clear 26 -3.3 13 -10.6 57 57 ESE 17 28 30 1016 10 16.09344 0 0
6:53 am 06:53 Clear 28 -2.2 13 -10.6 53 53 ESE 9 15 30 1016 10 16.09344 0 0
7:53 am 07:53 Sunny 26 -3.3 13 -10.6 57 57 E 7 11 30.06 1018 10 16.09344 0 0
8:53 am 08:53 Cloudy 25 -3.9 15 -9.4 66 66 Calm 30.15 1021 10 16.09344 0 0
9:53 am 09:53 Sunny 34 1.1 17 -8.3 50 50 NNE 7 11 30.15 1021 10 16.09344 0 0
10:43 am 10:43 Partly Cloudy 38 3.3 14 -10 37 37 NNE 17 28 30.18 1022 10 16.09344 0 0
10:53 am 10:53 Mostly Sunny 36 2.2 14 -10 40 40 NNE 16 26 30.21 1023 10 16.09344 0 0
11:51 am 11:51 Mostly Cloudy 34 1 12 -11 41 41 NNE 16 26 30.27 1025 10 16.09344 0 0
11:53 am 11:53 Mostly Cloudy 33 0.6 12 -11.1 42 42 NNE 13 20 30.27 1025 10 16.09344 0 0
12:53 pm 12:53 Cloudy 17 -8.3 11 -11.7 77 77 N 14 22 30.36 1028 9 14.484096 0 0
1:26 pm 13:26 Cloudy 18 -8 10 -12 73 73 NNE 13 20 30.48 1032 8 12.874752 0 0
1:53 pm 13:53 Cloudy 17 -8.3 11 -11.7 77 77 NNE 9 15 30.39 1029 8 12.874752 0 0
2:53 pm 14:53 Cloudy 18 -7.8 11 -11.7 74 74 ENE 6 9 30.42 1030 10 16.09344 0 0
3:53 pm 15:53 Cloudy 18 -7.8 11 -11.7 74 74 E 6 9 30.42 1030 10 16.09344 0 0
4:53 pm 16:53 Cloudy 17 -8.3 11 -11.7 77 77 SE 7 11 30.48 1032 10 16.09344 0 0
5:53 pm 17:53 Mostly Cloudy 16 -8.9 10 -12.2 77 77 SE 7 11 30.48 1032 10 16.09344 0 0
6:08 pm 18:08 Partly Cloudy 16 -9 9 -13 73 73 SSE 7 11 30.65 1038 10 16.09344 0 0
6:53 pm 18:53 Mostly Cloudy 14 -10 9 -12.8 80 80 ESE 6 9 30.5 1033 10 16.09344 0 0
7:53 pm 19:53 Cloudy 15 -9.4 10 -12.2 80 80 ESE 5 7 30.5 1033 10 16.09344 0 0
8:53 pm 20:53 Mostly Cloudy 15 -9.4 10 -12.2 80 80 ESE 7 11 30.5 1033 10 16.09344 0 0
9:26 pm 21:26 Mostly Cloudy 12 -11 9 -13 85 85 E 8 13 30.68 1039 10 16.09344 0 0
9:40 pm 21:40 Partly Cloudy 12 -11 9 -13 85 85 ESE 9 15 30.68 1039 10 16.09344 0 0
9:53 pm 21:53 Mostly Clear 13 -10.6 9 -12.8 84 84 ESE 8 13 30.5 1033 10 16.09344 0 0
10:53 pm 22:53 Cloudy 14 -10 10 -12.2 84 84 ESE 10 17 30.48 1032 10 16.09344 0 0
11:53 pm 23:53 Cloudy 15 -9.4 10 -12.2 80 80 ESE 9 15 30.45 1031 10 16.09344 0 0

Powered by AerisWeather